Home   Weather   El Paso   Past weeks

Flag for USA Past Weather in El Paso, Texas, USA — Yesterday and Last 2 Weeks

Now
61 °F

Passing clouds.


Feels Like: 61 °F
Forecast: 52 / 85 °F
Wind: 10 mph from East

Location: El Paso International Airport

Current Time: Apr 23, 2017 at 10:29:19 am

Latest Report: Apr 23, 2017 at 9:51 am


Visibility: 10 mi

Pressure: 30.06 "Hg (26.27 "Hg at 1142m altitude)

Humidity: 34%

Dew Point: 32 °F

Location of El PasoLocation

Past Weather in El Paso — Graph

°F

El Paso Temperature Yesterday

Maximum temperature yesterday: 79 °F (at 12:51 am)
Minimum temperature yesterday: 55 °F (at 6:51 am)
Average temperature yesterday: 66 °F

High & Low Weather Summary for the Past Weeks

 TemperatureHumidityPressure
High91 °F (Apr 20, 3:51 pm)77% (Apr 13, 4:51 am)30.09 "Hg (Apr 13, 4:51 am)
Low51 °F (Apr 10, 6:51 am)2% (Apr 21, 3:51 pm)29.61 "Hg (Apr 21, 4:51 pm)
Average74 °F19%29.80 "Hg
* Reported Apr 8 8:51 am — Apr 23 8:51 am, El Paso, Weather by CustomWeather, © 2017

Note: Actual official high and low records may vary slightly from our data, if they occured in-between our weather recording intervals... More about our weather records

Advertising

El Paso Weather History for the Previous 24 Hours

Scroll right to see more
 ConditionsComfort  
Time TempWeatherWind HumidityBarometerVisibility
8:51 am
Sun, Apr 23
59 °FPassing clouds.14 mph38%30.07 "Hg10 mi
7:51 am54 °FPassing clouds.5 mph45%30.09 "Hg10 mi
6:51 am52 °FPassing clouds.No wind47%30.07 "Hg10 mi
5:51 am52 °FClear.7 mph47%30.04 "Hg10 mi
4:51 am54 °FClear.10 mph43%30.03 "Hg10 mi
3:51 am56 °FClear.10 mph39%30.02 "Hg10 mi
2:51 am56 °FClear.8 mph40%30.03 "Hg10 mi
1:51 am57 °FClear.8 mph39%30.04 "Hg10 mi
12:51 am59 °FClear.10 mph38%30.04 "Hg10 mi
11:51 pm
Sat, Apr 22
60 °FClear.12 mph35%30.03 "Hg10 mi
10:51 pm60 °FClear.12 mph35%30.02 "Hg10 mi
9:51 pm62 °FClear.17 mph34%30.00 "Hg10 mi
8:51 pm64 °FClear.16 mph32%29.98 "Hg10 mi
7:51 pm67 °FClear.17 mph30%29.95 "Hg10 mi
6:51 pm70 °FSunny.14 mph27%29.93 "Hg10 mi
5:51 pm73 °FSunny.17 mph23%29.90 "Hg10 mi
4:51 pm75 °FSunny.12 mph22%29.88 "Hg10 mi
3:51 pm75 °FSunny.10 mph22%29.88 "Hg10 mi
2:51 pm74 °FSunny.16 mph24%29.88 "Hg10 mi
1:51 pm73 °FSunny.13 mph25%29.89 "Hg10 mi
11:51 am68 °FSunny.8 mph31%29.93 "Hg10 mi
10:51 am67 °FSunny.15 mph33%29.93 "Hg10 mi
Weather by CustomWeather, © 2017

See weather overviewHow to use our weather pages